This demonstration page uses our WeatherBlox Daily Observations layout. Learn more.

Left ArrowRight Arrow

Hourly Observations for October 30, 2016

Temp ( °F °C ) Dew Point ( °F °C ) Humidity (%) Winds ( mph kmh ) Pressure ( in mb ) Visibility ( mi km ) Precip ( " mm )
12:53 am 00:53 Clear 35 1.7 34 1.1 96 96 E 7 11 29.99 1016 10 16 0.00 0.00
1:53 am 01:53 Clear 34 1.1 33 0.6 97 97 NE 3 6 29.98 1015 10 16 0.00 0.00
2:53 am 02:53 Clear with Mist and Fog 30 -1.1 30 -1.1 100 100 ESE 3 6 29.96 1015 6 10 0.00 0.00
3:06 am 03:06 Partly Cloudy with Mist and Fog 30 -1 30 -1 100 100 Calm 30.03 1017 3 5 0.00 0.00
3:46 am 03:46 Partly Cloudy with Mist and Fog 30 -1 30 -1 100 100 Calm 30.03 1017 2 3 0.00 0.00
3:53 am 03:53 Mostly Cloudy with Mist and Fog 31 -0.6 31 -0.6 100 100 Calm 29.94 1014 2 3 0.00 0.00
4:04 am 04:04 Cloudy with Mist and Fog 30 -1 30 -1 100 100 Calm 30.00 1016 2 3 0.00 0.00
4:12 am 04:12 Mostly Cloudy with Mist and Fog 32 0 32 0 100 100 Calm 29.97 1015 1 1 0.00 0.00
4:34 am 04:34 Mostly Cloudy with Fog 32 0 32 0 100 100 Calm 29.97 1015 0 0 0.00 0.00
4:53 am 04:53 Mostly Cloudy with Fog 33 0.6 33 0.6 100 100 Calm 29.92 1013 0 0 0.00 0.00
5:53 am 05:53 Mostly Cloudy with Fog 32 0 32 0 100 100 W 5 7 29.93 1014 0 0 0.00 0.00
6:00 am 06:00 Mostly Cloudy with Fog 32 0 32 0 100 100 WNW 3 6 29.97 1015 1 1 0.00 0.00
6:38 am 06:38 Mostly Cloudy with Mist and Fog 32 0 32 0 100 100 Calm 29.97 1015 1 2 0.00 0.00
6:49 am 06:49 Mostly Cloudy with Mist and Fog 32 0 32 0 100 100 Calm 29.97 1015 2 3 0.00 0.00
6:53 am 06:53 Mostly Cloudy with Mist and Fog 32 0 32 0 100 100 S 3 6 29.94 1014 5 8 0.00 0.00
7:13 am 07:13 Mostly Cloudy 32 0 32 0 100 100 S 6 9 29.97 1015 10 16 0.00 0.00
7:53 am 07:53 Cloudy with Light Rain 34 1.1 34 1.1 100 100 SSW 5 7 29.95 1014 10 16 0.00 0.03
8:53 am 08:53 Mostly Cloudy 39 3.9 38 3.3 96 96 N 3 6 29.91 1013 10 16 0.00 0.03
9:53 am 09:53 Sunny 41 5 38 3.3 89 89 WNW 3 6 29.91 1013 10 16 0.00 0.00
10:53 am 10:53 Sunny 45 7.2 40 4.4 83 83 NW 5 7 29.91 1013 10 16 0.00 0.00
11:53 am 11:53 Sunny 50 10 42 5.6 74 74 WNW 5 7 29.89 1012 10 16 0.00 0.00
12:53 pm 12:53 Sunny 59 15 42 5.6 54 54 W 8 13 29.85 1011 10 16 0.00 0.00
1:53 pm 13:53 Sunny 61 16.1 41 5 48 48 W 6 9 29.82 1010 10 16 0.00 0.00
2:53 pm 14:53 Sunny 62 16.7 41 5 46 46 SSW 6 9 29.80 1009 10 16 0.00 0.00
3:53 pm 15:53 Sunny 65 18.3 40 4.4 40 40 NW 3 6 29.78 1009 10 16 0.00 0.00
4:53 pm 16:53 Sunny 63 17.2 39 3.9 41 41 Calm 29.75 1008 10 16 0.00 0.00
5:53 pm 17:53 Sunny 54 12.2 43 6.1 67 67 ENE 9 15 29.76 1008 10 16 0.00 0.00
6:53 pm 18:53 Clear 50 10 43 6.1 77 77 E 8 13 29.74 1007 10 16 0.00 0.00
7:53 pm 19:53 Clear 50 10 42 5.6 74 74 ENE 9 15 29.71 1006 10 16 0.00 0.00
8:53 pm 20:53 Clear 50 10 42 5.6 74 74 ENE 8 13 29.68 1005 10 16 0.00 0.00
9:53 pm 21:53 Mostly Cloudy 50 10 42 5.6 74 74 ENE 14 22 29.64 1004 10 16 0.00 0.00
10:53 pm 22:53 Cloudy 48 8.9 41 5 77 77 E 18 30 29.59 1002 10 16 0.00 0.03
11:53 pm 23:53 Mostly Cloudy 47 8.3 41 5 80 80 ENE 15 24 29.58 1002 10 16 0.00 0.00

Powered by AerisWeather